Lid_Strength_Index
2 2 2 2 3 3 2 2 1 1 1 1 1 2 2 2 2 3 3 3 3 3
2 2 3 4 3 3 1 1 1 1 1 2 2 2 2 2 2 2 3 3 3 2
2 2 2 3 3 2 1 1 1 1 1 2 2 2 2 2 2 2 3 3 3 3
2 2 2 2 2 1 1 1 1 1 2 2 2 2 2 2 3 3 3 3 3 3
2 2 2 2 2 1 2 1 1 1 2 2 2 2 2 2 3 3 3 3 3 2
2 2 2 2 2 1 1 1 1 2 2 2 2 2 2 2 3 3 3 3 2 2
3 2 2 2 2 2 1 2 2 2 2 2 2 2 2 2 3 3 2 2 2 2
2 2 2 2 2 1 2 1 2 2 2 3 2 2 3 3 2 2 2 2 2 2
2 2 2 2 2 2 2 2 2 3 3 2 2 9 8 4 2 2 2 2 2 2
2 3 2 2 2 2 2 2 3 3 2 3 4 10 10 6 1 2 2 2 2 3
3 3 3 4 3 3 2 3 3 3 3 4 6 12 11 8 1 2 2 2 3 2
3 3 4 3 4 3 4 4 5 5 4 5 6 12 11 5 2 2 3 3 3 2
3 3 3 4 4 4 4 5 5 5 5 7 7 12 10 5 2 3 3 3 3 8
2 3 4 4 4 4 5 5 5 5 5 5 6 8 10 9 2 2 3 3 3 4